Regional Weather Roundup
Issued by NWS Cleveland, OH

Home | Current Version | Previous Version | Text Only | Print | Product List | Glossary Off
Versions: 1 2 3 4 5 6 7 8 9 10 11 12 13 14 15 16 17 18 19 20 21 22 23 24 25 26 27 28 29 30 31 32 33 34 35 36 37 38 39 40 41 42 43 44 45 46 47 48 49 50

000
ASUS41 KCLE 070100
RWRCLE
OHIO REGIONAL WEATHER ROUNDUP
NATIONAL WEATHER SERVICE WILMINGTON, OH
900 PM EDT MON JUL 06 2015

NOTE: "FAIR" INDICATES FEW OR NO CLOUDS BELOW 12,000 FEET WITH NO
SIGNIFICANT WEATHER AND/OR OBSTRUCTIONS TO VISIBILITY.

OHZ001>008-015>018-024>027-034-035-043-044-070200-
   NORTHWEST OHIO

CITY           SKY/WX    TMP DP  RH WIND       PRES   REMARKS
DEFIANCE       MOCLDY    81  65  58 S6        29.94F
FINDLAY        CLEAR     75  65  70 S9        29.97S
TOLEDO EXPRESS PTCLDY    77  64  64 S6        29.94F
TOLEDO EXEC    CLEAR     76  63  64 S7        29.96S
LIMA           CLEAR     77  65  66 S6        29.99S
$$

OHZ009>014-019>023-028>033-038-089-070200-
   NORTHEAST OHIO

CITY           SKY/WX    TMP DP  RH WIND       PRES   REMARKS
CLE-HOPKINS    PTCLDY    78  62  57 N5        29.99S
CLE-LAKEFRONT  CLEAR     75  65  70 N5        29.97R
CUY CO. ARPT   PTCLDY    79  63  57 E6        29.99F
LORAIN-ELYRIA  CLEAR     76  65  68 CALM      29.98F
ASHTABULA      PTCLDY    71  68  90 SE5       30.00F
AKRON-CANTON   PTCLDY    75  67  76 SE9       30.00F
WOOSTER        NOT AVBL
MANSFIELD      CLEAR     73  61  65 SW5       30.01S
YOUNGSTOWN     MOCLDY    73  70  90 CALM      30.01F
$$

OHZ042-051>053-060>062-070>072-077>081-070200-
  SOUTHWEST OHIO

CITY           SKY/WX    TMP DP  RH WIND       PRES   REMARKS
CINC-COVINGTON MOCLDY    78  68  71 S5        30.00F HAZE
CINC-LUNKEN    PTCLDY    76  70  82 S3        29.99F
HAMILTON       CLEAR     77  69  76 S3        29.99F HAZE
DAYTON         NOT AVBL
WRIGHT-PAT AFB CLEAR     78  64  62 S8        30.00S
DAYTON GENERAL CLEAR     77  65  66 S3        30.00S
WILMINGTON     CLEAR     75  65  70 S5        30.01F HAZE
$$

OHZ036-037-039>041-045>050-054>059-063>069-073>076-082>088-070200-
  CENTRAL AND SOUTHEAST OHIO

CITY           SKY/WX    TMP DP  RH WIND       PRES   REMARKS
COLUMBUS       PTCLDY    78  60  53 SW7       30.00S
OSU AIRPORT    CLEAR     76  60  57 SW7       30.00F
BOLTON FIELD   NOT AVBL
RICKENBACK AFB NOT AVBL
NEWARK         CLEAR     76  62  62 SW6       30.00F
MARION         CLEAR     73  62  68 SW6       30.00S
LANCASTER      CLEAR     72  64  76 SW3       30.01F
ZANESVILLE     PTCLDY    77  65  66 S5        30.00F
NEW PHILLY     PTCLDY    70  69  97 CALM      30.00F
$$


USA.gov is the U.S. government's official web portal to all federal, state and local government web resources and services.